Weather History for KMSS - March, 2014

Change the Weather History Date:

Wednesday, March 19, 2014

  Actual Average Record
Temperature  
Mean Temperature 27 °F 29 °F  
Max Temperature 37 °F 39 °F 77 °F (2012)
Min Temperature 17 °F 20 °F -15 °F (1993)
Degree Days  
Heating Degree Days 38 36  
Month to date heating degree days 949 755  
Since 1 July heating degree days 7118 6742  
Cooling Degree Days 0 0  
Month to date cooling degree days 0 0  
Year to date cooling degree days 0 0  
Moisture  
Dew Point 17 °F    
Average Humidity 72    
Maximum Humidity 89    
Minimum Humidity 54    
Precipitation  
Precipitation T in 0.06 in 0.47 in (2008)
Month to date precipitation 0.18 1.23  
Year to date precipitation 2.92 5.18  
Sea Level Pressure  
Sea Level Pressure 30.03 in    
Wind  
Wind Speed 8 mph (ENE)    
Max Wind Speed 17 mph    
Max Gust Speed 20 mph    
Visibility 10 miles    
Events Rain    
T = Trace of Precipitation, MM = Missing Value Source: NWS Daily Summary

Daily Weather History Graph

Daily Weather History Graph

Search for Another Location

Airport or City:

Trip Planner

Search our weather history database for the weather conditions in past years. The results will help you decide how hot, cold, wet, or windy it might be!

Date:

Astronomy

Mar. 19, 2014 Rise Set
Actual Time 7:04 AM EDT 7:10 PM EDT
Civil Twilight 6:35 AM EDT 7:39 PM EDT
Nautical Twilight 6:00 AM EDT 8:14 PM EDT
Astronomical Twilight 5:25 AM EDT 8:49 PM EDT
Moon 10:35 PM EDT (3/19) 8:20 AM EDT (3/19)
Length of Visible Light 13h 04m
Length of Day
12h 06m
Waning Gibbous, 91% of the Moon is Illuminated
Mar 19
Waning Gibbous
Mar 23
Last Quarter
Mar 30
New
Apr 7
First Quarter
Apr 15
Full

Hourly Weather History & Observations

Time (EDT) Temp. Windchill Dew Point Humidity Pressure Visibility Wind Dir Wind Speed Gust Speed Precip Events Conditions
12:53 AM 19.9 °F 9.3 °F 6.1 °F 55% 30.29 in 10.0 mi ENE 9.2 mph - N/A   Clear
1:53 AM 18.0 °F 6.9 °F 6.1 °F 60% 30.28 in 10.0 mi NE 9.2 mph - N/A   Clear
2:53 AM 18.0 °F 8.7 °F 6.1 °F 60% 30.28 in 10.0 mi NE 6.9 mph - N/A   Clear
3:53 AM 18.0 °F 8.7 °F 6.1 °F 60% 30.27 in 10.0 mi ENE 6.9 mph - N/A   Clear
4:53 AM 18.0 °F 7.7 °F 6.1 °F 60% 30.26 in 10.0 mi ENE 8.1 mph - N/A   Clear
5:53 AM 17.1 °F 5.0 °F 6.1 °F 62% 30.25 in 10.0 mi ENE 10.4 mph - N/A   Clear
6:53 AM 17.1 °F 5.0 °F 6.1 °F 62% 30.23 in 10.0 mi ENE 10.4 mph - N/A   Clear
7:53 AM 18.0 °F 6.1 °F 7.0 °F 62% 30.23 in 10.0 mi ENE 10.4 mph - N/A   Clear
8:53 AM 19.0 °F 5.0 °F 8.1 °F 62% 30.20 in 10.0 mi ENE 15.0 mph - N/A   Clear
9:53 AM 19.9 °F 7.3 °F 10.0 °F 65% 30.17 in 10.0 mi ENE 12.7 mph - N/A   Overcast
10:53 AM 21.9 °F 11.7 °F 10.9 °F 63% 30.15 in 10.0 mi NE 9.2 mph - N/A   Overcast
11:53 AM 24.1 °F 11.5 °F 12.9 °F 62% 30.12 in 10.0 mi ENE 15.0 mph - 0.00 in   Overcast
12:53 PM 26.1 °F 16.2 °F 14.0 °F 60% 30.08 in 10.0 mi ENE 10.4 mph - N/A   Overcast
1:53 PM 28.0 °F 17.5 °F 15.1 °F 58% 30.03 in 10.0 mi ENE 12.7 mph - N/A   Overcast
2:53 PM 30.0 °F 22.4 °F 17.1 °F 59% 29.99 in 10.0 mi ENE 8.1 mph - N/A   Overcast
3:53 PM 32.0 °F 24.8 °F 18.0 °F 56% 29.95 in 10.0 mi ENE 8.1 mph - N/A   Overcast
4:53 PM 32.0 °F 25.6 °F 19.9 °F 61% 29.92 in 10.0 mi ENE 6.9 mph - N/A   Overcast
5:53 PM 32.0 °F 25.6 °F 19.9 °F 61% 29.90 in 10.0 mi NNE 6.9 mph - N/A   Overcast
6:53 PM 33.1 °F - 21.0 °F 61% 29.89 in 10.0 mi Calm Calm - 0.00 in   Overcast
7:16 PM 32.0 °F - 24.1 °F 73% 29.86 in 10.0 mi Calm Calm - 0.00 in   Overcast
7:34 PM 33.1 °F 27.7 °F 25.0 °F 72% 29.84 in 10.0 mi ENE 5.8 mph - 0.00 in   Overcast
7:53 PM 33.1 °F 27.7 °F 25.0 °F 72% 29.86 in 10.0 mi East 5.8 mph - 0.00 in   Overcast
8:53 PM 36.0 °F 32.1 °F 30.9 °F 82% 29.84 in 10.0 mi East 4.6 mph - 0.00 in   Overcast
9:51 PM 35.6 °F 30.7 °F 30.2 °F 81% 29.80 in 9.0 mi ENE 5.8 mph - 0.00 in   Overcast
9:53 PM 35.1 °F 30.1 °F 30.9 °F 85% 29.82 in 9.0 mi ENE 5.8 mph - 0.00 in   Overcast
10:17 PM 35.1 °F 29.3 °F 30.9 °F 85% 29.79 in 8.0 mi East 6.9 mph - 0.00 in Rain Light Rain
10:53 PM 35.1 °F 29.3 °F 30.9 °F 85% 29.79 in 10.0 mi East 6.9 mph - 0.00 in   Overcast
11:53 PM 34.0 °F 31.0 °F 30.9 °F 89% 29.76 in 10.0 mi East 3.5 mph - 0.00 in Rain Light Rain